This demonstration page uses our WeatherBlox Daily Observations layout. Learn more.

36.17497, -115.13722

Hourly Observations for June 11, 2016

Temp ( °F °C ) Dew Point ( °F °C ) Humidity (%) Winds ( mph kmh ) Pressure ( in mb ) Visibility ( mi km ) Precip ( " mm )
12:53 am 00:53 Mostly Cloudy 88 31.1 48 8.9 25 25 SSE 21 33 29.78 1009 10 16.0934 0 0
1:53 am 01:53 Mostly Cloudy 85 29.4 48 8.9 28 28 SSE 16 26 29.81 1010 10 16.0934 0 0.0254
2:53 am 02:53 Cloudy with Light Rain 82 27.8 53 11.7 37 37 SSE 16 26 29.83 1010 10 16.0934 0 0.0254
3:08 am 03:08 Cloudy 79 26 54 12 42 42 SSW 26 43 29.77 1008 10 16.0934 0 0
3:53 am 03:53 Cloudy with Light Rain 72 22.2 61 16.1 68 68 W 7 11 29.88 1012 10 16.0934 0 0.0254
4:53 am 04:53 Cloudy with Light Rain 72 22.2 62 16.7 71 71 NNE 7 11 29.87 1012 10 16.0934 0 0.0254
5:53 am 05:53 Cloudy 73 22.8 63 17.2 71 71 W 8 13 29.88 1012 10 16.0934 0 0.0254
6:53 am 06:53 Sunny 75 23.9 60 15.6 60 60 NW 5 7 29.88 1012 10 16.0934 0 0.0254
7:53 am 07:53 Sunny 74 23.3 60 15.6 62 62 NNW 13 20 29.91 1013 10 16.0934 0 0
8:53 am 08:53 Sunny 77 25 58 14.4 52 52 N 7 11 29.91 1013 10 16.0934 0 0
9:53 am 09:53 Sunny 80 26.7 55 12.8 42 42 ESE 5 7 29.92 1013 10 16.0934 0 0
10:53 am 10:53 Sunny 83 28.3 54 12.2 37 37 VRB 3 6 29.91 1013 10 16.0934 0 0
11:53 am 11:53 Sunny 86 30 53 11.7 32 32 VRB 5 7 29.89 1012 10 16.0934 0 0
12:53 pm 12:53 Sunny 89 31.7 53 11.7 29 29 Calm 29.85 1011 10 16.0934 0 0
1:53 pm 13:53 Sunny 91 32.8 52 11.1 26 26 E 9 15 29.83 1010 10 16.0934 0 0
2:53 pm 14:53 Mostly Sunny 93 33.9 49 9.4 22 22 VRB 5 7 29.8 1009 10 16.0934 0 0
3:53 pm 15:53 Partly Cloudy 93 33.9 45 7.2 19 19 SSE 10 17 29.77 1008 10 16.0934 0 0
4:53 pm 16:53 Sunny 93 33.9 42 5.6 17 17 S 20 31 29.75 1008 10 16.0934 0 0
5:53 pm 17:53 Partly Cloudy 94 34.4 43 6.1 17 17 S 18 30 29.74 1007 10 16.0934 0 0
6:53 pm 18:53 Partly Cloudy 93 33.9 37 2.8 14 14 SW 21 33 29.75 1007 10 16.0934 0 0
7:53 pm 19:53 Sunny 91 32.8 37 2.8 15 15 SSW 15 24 29.77 1008 10 16.0934 0 0
8:53 pm 20:53 Clear 89 31.7 40 4.4 18 18 S 12 19 29.79 1009 10 16.0934 0 0
9:53 pm 21:53 Clear 88 31.1 43 6.1 21 21 SSW 8 13 29.8 1009 10 16.0934 0 0
10:53 pm 22:53 Clear 86 30 42 5.6 21 21 S 8 13 29.81 1009 10 16.0934 0 0
11:53 pm 23:53 Partly Cloudy 85 29.4 43 6.1 23 23 S 6 9 29.82 1010 10 16.0934 0 0

Powered by AerisWeather